Monterey Regional Airport

Airport
ICAO code: 
KMRY
Summary
ICAO Region: 
NAM
Territory: 
Location: 
Monterey, California,
Serving: 
Monterey, California
Coordinates: 
Aerial View: 
36° 35' 17.768" N, 121° 50' 56.793" W
Airport LOS: 
Parallel Runway Operation
Airport WX: 
Fog
Metar
Observation
KMRY 031254Z AUTO 00000KT 10SM OVC006 12/09 A3012 RMK AO2 SLP212 T01170094
Station
Monterey, Monterey Peninsula Airport
Date/Time
2021-12-03 12:54:00
Wind direction
Wind speed
00 kts
Lowest cloud amount
overcast
Temperature
11.7°C
Dew point
9.4°C
Humidity
85%
Weather condition
n/a

Description

Monterey Regional Airport is a regional airport located 5 km southeast of the central business district of Monterey, a city in Monterey County, California.

Climatology

Dry-summer subtropical ”Mediterranean" climate (Köppen climate classification Csb) - characterized by warm, dry summers and mild winters.

Runways

Designator Length Width Surface Rops
10L/28R 1071 18 ASP Yes/Yes
10R/28L 2321 46 ASP Yes/Yes
Airport map: 
Aerial View: 

SKYbrary Partners:

Safety knowledge contributed by: